Regional Weather Roundup
Issued by NWS

Home | Current Version | Previous Version | Text Only | Print | Product List | Glossary On
Versions: 1 2 3 4 5 6 7 8 9 10 11 12 13 14 15 16 17 18 19 20 21 22 23 24 25 26 27 28 29 30 31 32 33 34 35 36 37 38 39 40 41 42 43 44 45 46 47 48 49 50
000
ASUS43 KMPX 220310
RWRMN
WEATHER ROUNDUP FOR MINNESOTA
NATIONAL WEATHER SERVICE TWIN CITIES/CHANHASSEN MN
900 PM CST SUN DEC 21 2014


NOTE: "FAIR" INDICATES FEW OR NO CLOUDS BELOW 12,000 FEET WITH NO
SIGNIFICANT WEATHER AND/OR OBSTRUCTIONS TO VISIBILITY. N/A MEANS
CURRENT SKY AND/OR WEATHER CONDITIONS ARE NOT AVAILABLE.

MNZ060>063-068>070-220400-
   Twin Cities Metro

CITY           SKY/WX    TMP DP  RH WIND       PRES   REMARKS
TWIN CITIES    LGT RAIN  37  35  92 SE8       29.73F
ST PAUL        LGT RAIN  37  36  96 SE9       29.75F FOG
CRYSTAL        CLOUDY    38  36  92 S9        29.71F
BLAINE         CLOUDY    37  37 100 SE9       29.72
LAKEVILLE      DRIZZLE   36  36 100 S9G17     29.72F
EDEN PRAIRIE   LGT RAIN  38  36  92 S14       29.71F
SOUTH ST PAUL  LGT RAIN  37  37  97 S6        29.74S
LAKE ELMO      RAIN      36  36 100 S10       29.75S
$$
MNZ001>005-007-008-013>017-022>024-027-028-220400-
   Northwest Minnesota

CITY           SKY/WX    TMP DP  RH WIND       PRES   REMARKS
BEMIDJI        CLOUDY    32  32  99 SE9       29.62S WCI  24
HALLOCK        CLOUDY    32  30  93 CALM      29.60R FOG
ROSEAU         CLOUDY    34  28  80 SE10      29.61S WCI  26
WARROAD        CLOUDY    32  28  86 SE7       29.63S WCI  26
THIEF RVR FALL CLOUDY    32  30  93 SE10      29.59F WCI  24
CROOKSTON      CLOUDY    34  30  86 SE7       29.60S WCI  28
FOSSTON        CLOUDY    30  30 100 SE9       29.59S WCI  22
DETROIT LAKES  CLOUDY    34  34 100 SE14      29.59S FOG     WCI  24
MOORHEAD       CLOUDY    36  36 100 SE14      29.58S FOG
PARK RAPIDS    FOG       34  33  96 SE10      29.62R VSB 1   WCI  26
MAHNOMEN       CLOUDY    33  32  95 SE9       29.58S WCI  25
$$
MNZ006-009>011-018-025>026-220400-
   North Central Minnesota

CITY           SKY/WX    TMP DP  RH WIND       PRES   REMARKS
BAUDETTE       CLOUDY    32  30  92 SE7       29.63F WCI  26
FLAG ISLAND    CLOUDY    30  30 100 S13       29.63F WCI  20
INTL FALLS     CLOUDY    32  31  96 SE6       29.67F WCI  26
WASKISH        CLOUDY    34  32  93 CALM      29.63F
BIG FORK       CLOUDY    34  30  86 SE6       29.66F FOG     WCI  29
LONGVILLE      CLOUDY    34  32  93 SE7       29.65S FOG     WCI  28
GRAND RAPIDS   CLOUDY    32  30  93 SE7       29.67S WCI  26
CRANE LAKE     CLOUDY    30  30 100 CALM      29.72F FOG
ORR            CLOUDY    32  28  86 CALM      29.67S
COOK           CLOUDY    32  30  93 SE5       29.70S WCI  27
WALKER         CLOUDY    32  32 100 SE6       29.63S FOG     WCI  26
$$
MNZ012-019>021-037-220400-
   Northeast Minnesota

CITY           SKY/WX    TMP DP  RH WIND       PRES   REMARKS
DULUTH         CLOUDY    33  31  92 SE8       29.71F FOG     WCI  26
ELY            CLOUDY    32  30  93 SE6       29.72S FOG     WCI  26
HIBBING        CLOUDY    33  31  92 SE9       29.69F FOG     WCI  25
EVELETH        CLOUDY    32  32 100 SE6       29.71F FOG     WCI  26
DULUTH HARBOR  CLOUDY    36  34  93 CALM      29.76S
TWO HARBORS    CLOUDY    36  30  80 E2        29.74S
SILVER BAY     CLOUDY    34  34 100 CALM      29.74S FOG
GRAND MARAIS     N/A     36  34  92 S15       29.81S
G MARAIS ARPRT MIX PCPN  30  28  93 S6        29.76S VSB<1/4 WCI  24
$$
MNZ029>031-032-039>041-046>048-054>057-064-220400-
   West Central Minnesota

CITY           SKY/WX    TMP DP  RH WIND       PRES   REMARKS
FERGUS FALLS   CLOUDY    34  34 100 SE13      29.61S FOG     WCI  25
WHEATON        CLOUDY    32  32 100 SE13      29.57F FOG     WCI  22
MORRIS         FOG       36  34  93 SE12      29.57F VSB 1/2
ALEXANDRIA     FOG       34  34 100 SE9       29.61S VSB 1   WCI  27
ELBOW LAKE     DRIZZLE   34  34 100 SE15      29.58S WCI  24
WADENA         DRIZZLE   34  32  93 SE9       29.61S WCI  26
GLENWOOD       CLOUDY    36  36 100 SE14G20   29.62F FOG
APPLETON       CLOUDY    37  36  93 SE10      29.58F FOG
BENSON         MIX PCPN  36  34  93 S10       29.61F
ORTONVILLE     CLOUDY    36  32  87 SE8       29.55F FOG
MADISON        CLEAR     39  37  93 SE9       29.56F FOG
WILLMAR        FOG       36  36 100 S9        29.64S VSB 1
$$
MNZ033>034-036-042>043-049>051-058-059-220400-
   Central Minnesota

CITY           SKY/WX    TMP DP  RH WIND       PRES   REMARKS
ST CLOUD       FOG       37  35  92 SE13      29.67S VSB 1
SAUK CENTRE    FOG       34  34 100 SE9       29.64S VSB 1/2 WCI  26
PAYNESVILLE    CLOUDY    33  33 100 SE9       29.65S FOG     WCI  25
AITKIN         CLOUDY    36  30  80 SE7       29.66S HAZE
PINE RIVER     FOG       34  34 100 SE8       29.69R VSB 1   WCI  27
BRAINERD       CLOUDY    34  33  96 S8        29.67S FOG     WCI  27
STAPLES        CLOUDY    34  34 100 SE8       29.63S FOG     WCI  27
LONG PRAIRIE   FOG       32  32 100 SE9       29.64S VSB 1/2 WCI  24
LITTLE FALLS   CLOUDY    34  32  93 SE7       29.67S FOG     WCI  28
LITCHFIELD     CLOUDY    37  37 100 SE7       29.66S FOG
BUFFALO        CLOUDY    37  35  95 SE8       29.70S FOG
MAPLE LAKE     CLOUDY    37  37  99 SE8       29.69S FOG
$$
MNZ037-044-045-052-053-220400-
   East Central Minnesota

CITY           SKY/WX    TMP DP  RH WIND       PRES   REMARKS
PRINCETON      RAIN      37  36  93 SE7       29.70S
MORA           CLOUDY    32  30  93 SE6       29.72F WCI  26
CAMBRIDGE      DRIZZLE   37  30  75 SE7       29.70R
RUSH CITY      CLOUDY    35  34  97 SE7       29.73S FOG     WCI  29
MOOSE LAKE     CLOUDY    34  32  93 S6        29.69S FOG     WCI  29
HINCKLEY       CLOUDY    34  34 100 CALM      29.72S FOG
CLOQUET        CLOUDY    34  32  93 SE5       29.71S FOG     WCI  30
MCGREGOR       CLOUDY    34  34 100 SE8       29.70S VSB 3/4 WCI  27
$$
MNZ071>073-080-081-089-090-097-098-220400-
   Southwest Minnesota

CITY           SKY/WX    TMP DP  RH WIND       PRES   REMARKS
MONTEVIDEO     CLOUDY    36  36 100 S8        29.61F FOG
GRANITE FALLS  CLOUDY    37  36  96 SE13      29.62F
CANBY          CLOUDY    38  36  93 S13       29.56F
MARSHALL       CLOUDY    37  34  87 S17       29.58F
REDWOOD FALLS  CLOUDY    38  36  92 S16       29.64S FOG
OLIVIA         CLOUDY    36  36 100 SE9       29.64S FOG
PIPESTONE      CLOUDY    36  36 100 S17       29.55F FOG
WINDOM         CLOUDY    37  37 100 S15       29.63F FOG
WORTHINGTON    CLOUDY    37 -11  12 S15       29.62F
JACKSON        CLOUDY    37  36  93 S13G21    29.65F FOG
TRACY          CLOUDY    38  37  93 S15G21    29.59F
SLAYTON        CLOUDY    36  36 100 S17       29.60S FOG
$$
MNZ065>067-074>077-082>085-091>093-220400-
   South Central Minnesota

CITY           SKY/WX    TMP DP  RH WIND       PRES   REMARKS
MANKATO        CLOUDY    37  34  87 S13G18    29.70F
NEW ULM        CLOUDY    37  37 100 S13G20    29.68S FOG
ST JAMES       CLOUDY    39  37  93 SE13G18   29.68S FOG
FAIRMONT       CLOUDY    37  34  87 S18       29.68S
GLENCOE        CLOUDY    38  38 100 S9        29.68S FOG
FARIBAULT      DRIZZLE   37  36  93 S10       29.73F
OWATONNA       LGT RAIN  37  36  93 S16       29.73S
WASECA         CLOUDY    36  36 100 S16G22    29.73F
ALBERT LEA     CLOUDY    37  37 100 S12       29.73F FOG
$$
MNZ078>079-086>088-094>096-220400-
   Southeast Minnesota

CITY           SKY/WX    TMP DP  RH WIND       PRES   REMARKS
ROCHESTER      CLOUDY    36  35  96 S17G26    29.77R FOG
RED WING       LGT RAIN  39  36  87 SE7       29.77S
STANTON        LGT RAIN  38  36  89 S10       29.73S
DODGE CENTER   CLOUDY    37  37 100 S17G23    29.75R FOG
WINONA         CLOUDY    39  36  87 S8        29.82S
AUSTIN         LGT RAIN  37  36  93 S10       29.75F
PRESTON        CLOUDY    35  34  96 S16G28    29.79S FOG     WCI  25
$$
ABBREVIATIONS USED IN REMARKS
   TC - TEMPERATURES IN CELSIUS
  WCI - WIND CHILL INDEX
   HX - HEAT INDEX
  VSB - VISIBILITY
$$


USA.gov is the U.S. government's official web portal to all federal, state and local government web resources and services.